Regional Weather Roundup
Issued by NWS

Home | Current Version | Previous Version | Graphics & Text | Print | Product List | Glossary On
Versions: 1 2 3 4 5 6 7 8 9 10 11 12 13 14 15 16 17 18 19 20 21 22 23 24 25 26 27 28 29 30 31 32 33 34 35 36 37 38 39 40 41 42 43 44 45 46 47 48 49 50
000
ASUS43 KIND 210459
RWRIN

WEATHER ROUNDUP FOR INDIANA
NATIONAL WEATHER SERVICE INDIANAPOLIS IN
1200 AM EST FRI NOV 21 2014

NOTE: "FAIR" INDICATES FEW OR NO CLOUDS BELOW 12,000 FEET WITH NO
SIGNIFICANT WEATHER AND/OR OBSTRUCTIONS TO VISIBILITY.

* - STATION DOES NOT REPORT WEATHER SUCH AS PRECIPITATION OR FOG.

+ - STATION NOT QUALITY CONTROLLED BY THE NATIONAL WEATHER SERVICE.
    USE DATA WITH CAUTION...ESPECIALLY DEWPOINT AND RELATIVE
    HUMIDITY OBSERVATIONS.

INZ001>003-010>013-019-020-210600-
NORTHWEST INDIANA

CITY           SKY/WX    TMP DP  RH WIND       PRES   REMARKS
KNOX *+        FAIR      17   6  62 W10       30.25R WCI   4
MONTICELLO +   CLEAR     16   8  68 W7        30.28R WCI   7
VALPARAISO     NOT AVBL

$$

LMZ046-743>745-210600-
SOUTHERN LAKE MICHIGAN

STATION/POSITION TIME  TEMP WIND        PRES
                       AIR  DIR/SP/G
                 (UTC) (F)  (DEG/KT/KT) (MB)
MICHIGAN CITY    0400   24  290/ 22/ 26   N/A

$$

INZ004-005-014>016-021>024-210600-
NORTH CENTRAL INDIANA

CITY           SKY/WX    TMP DP  RH WIND       PRES   REMARKS
GOSHEN         CLOUDY    22  10  60 NW9       30.21R WCI  12
SOUTH BEND     CLOUDY    24   9  52 NW18      30.23R WCI  10

$$

INZ006>009-017-018-025>027-210600-
NORTHEAST INDIANA

CITY           SKY/WX    TMP DP  RH WIND       PRES   REMARKS
ANGOLA *+      CLEAR     19  10  68 NW5       30.16R WCI  13
FORT WAYNE     CLEAR     18   7  62 W10       30.23R WCI   6

$$

INZ028-029-035-036-043>045-051>053-210600-
WEST CENTRAL INDIANA

CITY           SKY/WX    TMP DP  RH WIND       PRES   REMARKS
GREENCASTLE +  FAIR      23  14  68 NW3       30.29R
LAFAYETTE      CLEAR     18   7  62 NW8       30.31R WCI   8
TERRE HAUTE    CLEAR     23  15  71 N5        30.32R WCI  17

$$

INZ030>032-037>040-046>048-054>057-064-065-210600-
CENTRAL INDIANA

CITY           SKY/WX    TMP DP  RH WIND       PRES   REMARKS
INDIANAPOLIS   CLEAR     21  11  65 NW7       30.28R WCI  12
-EAGLE CREEK   CLEAR     22  11  62 W10       30.28R WCI  11
KOKOMO *+      CLEAR     18   9  68 NW10      30.26R WCI   6
MT COMFORT *+  CLEAR     19   5  53 NW7       30.28R WCI  10
SHELBYVILLE    CLEAR     23  14  68 W6        30.28R WCI  16

$$

INZ033-034-041-042-049-050-058-059-210600-
EAST CENTRAL INDIANA

CITY           SKY/WX    TMP DP  RH WIND       PRES   REMARKS
MUNCIE         CLEAR     19   9  65 W8        30.25R WCI   9

$$

INZ060-061-067>069-081>083-085>088-210600-
SOUTHWEST INDIANA

CITY           SKY/WX    TMP DP  RH WIND       PRES   REMARKS
EVANSVILLE     CLEAR     25  19  78 CALM      30.34R
HUNTINGBURG *+ CLEAR     19  14  79 S10G26    30.33R WCI   8

$$

INZ062-063-066-070>080-084-089>092-210600-
SOUTH CENTRAL AND SOUTHEAST INDIANA

CITY           SKY/WX    TMP DP  RH WIND       PRES   REMARKS
BLOOMINGTON    CLEAR     25  16  68 W7        30.28R WCI  17

$$



USA.gov is the U.S. government's official web portal to all federal, state and local government web resources and services.